EWG4SG LEPA-EDDS

Flight info

Callsign EWG4SG
Flight time N/A
Altitude 38000
Route MEROS N853 LUMAS DCT MAXIR DCT LUSOL DCT BODRU DCT OKTET DCT IRMAR DCT KINES DCT VANAS DCT MOBLO DCT LAMUR DCT KORED DCT BERSU N871 DITON T163 ZUE T125 REUTL REUTL5A
Aircraft A20N/M-SDE2E3FGHIRWXY/LB1

Departure

Time 2026-05-05 06:12
Airport Palma de Mallorca Airport (LEPA)

Arrival

Time N/A
Airport Stuttgart Airport (EDDS)
Time Latitude Longitude Altitude Speed Heading
2026-05-05 06:00 39.55038 2.73544 36 ft 0 kts 163°
2026-05-05 06:04 39.55042 2.73542 34 ft 2 kts 163°
2026-05-05 06:04 39.55056 2.73537 36 ft 2 kts 163°
2026-05-05 06:04 39.55070 2.73531 36 ft 2 kts 163°
2026-05-05 06:04 39.55083 2.73522 33 ft 2 kts 122°
2026-05-05 06:05 39.55087 2.73507 35 ft 0 kts 60°
2026-05-05 06:07 39.55096 2.73528 36 ft 8 kts 60°
2026-05-05 06:07 39.55141 2.73616 36 ft 14 kts 56°
2026-05-05 06:07 39.55178 2.73744 36 ft 17 kts 93°
2026-05-05 06:07 39.55215 2.73814 36 ft 7 kts 344°
2026-05-05 06:08 39.55335 2.73725 35 ft 28 kts 329°
2026-05-05 06:08 39.55516 2.73580 30 ft 33 kts 328°
2026-05-05 06:08 39.55654 2.73507 31 ft 12 kts 27°
2026-05-05 06:08 39.55711 2.73625 27 ft 22 kts 58°
2026-05-05 06:09 39.55801 2.73814 28 ft 27 kts 59°
2026-05-05 06:09 39.55901 2.74029 21 ft 29 kts 59°
2026-05-05 06:09 39.55958 2.74146 20 ft 8 kts 56°
2026-05-05 06:09 39.55998 2.74224 18 ft 13 kts 56°
2026-05-05 06:10 39.56059 2.74311 17 ft 6 kts 11°
2026-05-05 06:10 39.56072 2.74314 18 ft 5 kts
2026-05-05 06:10 39.56129 2.74344 17 ft 12 kts 25°
2026-05-05 06:10 39.56213 2.74329 17 ft 14 kts 328°
2026-05-05 06:11 39.56212 2.74221 18 ft 14 kts 239°
2026-05-05 06:11 39.56132 2.74052 19 ft 47 kts 238°
2026-05-05 06:11 39.55836 2.73445 24 ft 110 kts 239°
2026-05-05 06:11 39.55352 2.72412 27 ft 156 kts 238°
2026-05-05 06:12 39.54768 2.71132 363 ft 171 kts 237°
2026-05-05 06:12 39.54101 2.69772 799 ft 186 kts 235°
2026-05-05 06:12 39.53368 2.68363 1370 ft 192 kts 235°
2026-05-05 06:12 39.52596 2.66881 1808 ft 204 kts 235°
2026-05-05 06:13 39.51791 2.65319 2399 ft 212 kts 235°
2026-05-05 06:13 39.50990 2.63742 3343 ft 208 kts 236°
2026-05-05 06:13 39.50196 2.62167 4234 ft 211 kts 236°
2026-05-05 06:13 39.49263 2.60637 4915 ft 227 kts 219°
2026-05-05 06:14 39.47885 2.59512 5548 ft 242 kts 207°
2026-05-05 06:14 39.46302 2.58532 6114 ft 261 kts 205°
2026-05-05 06:14 39.44646 2.57513 7061 ft 264 kts 206°
2026-05-05 06:14 39.42974 2.56509 8075 ft 267 kts 198°
2026-05-05 06:15 39.41109 2.56338 9042 ft 275 kts 172°
2026-05-05 06:15 39.39329 2.57306 9978 ft 285 kts 146°
2026-05-05 06:15 39.37914 2.59171 10532 ft 308 kts 131°
2026-05-05 06:15 39.36572 2.61478 10844 ft 333 kts 130°
2026-05-05 06:16 39.35079 2.63870 11315 ft 348 kts 134°
2026-05-05 06:16 39.33440 2.66195 12103 ft 353 kts 137°
2026-05-05 06:16 39.31704 2.68485 12874 ft 360 kts 136°
2026-05-05 06:16 39.30317 2.71232 13628 ft 375 kts 115°
2026-05-05 06:17 39.29709 2.74548 14295 ft 387 kts 95°
2026-05-05 06:17 39.29983 2.78033 14983 ft 395 kts 74°
2026-05-05 06:17 39.31116 2.81269 15672 ft 399 kts 54°
2026-05-05 06:17 39.32726 2.83629 16266 ft 399 kts 37°
2026-05-05 06:18 39.35046 2.85578 16960 ft 398 kts 24°
2026-05-05 06:18 39.37477 2.87240 17633 ft 404 kts 24°
2026-05-05 06:18 39.39914 2.89101 18318 ft 410 kts 28°
2026-05-05 06:18 39.42298 2.91198 18906 ft 416 kts 32°
2026-05-05 06:19 39.44634 2.93454 19499 ft 422 kts 34°
2026-05-05 06:19 39.46964 2.95812 20056 ft 427 kts 34°
2026-05-05 06:19 39.49305 2.98221 20616 ft 433 kts 35°
2026-05-05 06:19 39.51671 3.00666 21178 ft 437 kts 35°
2026-05-05 06:20 39.54058 3.03131 21757 ft 441 kts 35°
2026-05-05 06:20 39.56473 3.05624 22305 ft 446 kts 35°
2026-05-05 06:20 39.58904 3.08130 22673 ft 450 kts 35°
2026-05-05 06:20 39.61335 3.10641 22693 ft 437 kts 35°
2026-05-05 06:21 39.63677 3.13065 22403 ft 427 kts 34°
2026-05-05 06:21 39.65966 3.15430 21802 ft 425 kts 34°
2026-05-05 06:21 39.68281 3.17819 21088 ft 427 kts 34°
2026-05-05 06:21 39.70610 3.20225 20387 ft 428 kts 35°
2026-05-05 06:22 39.73080 3.22323 19705 ft 421 kts 20°
2026-05-05 06:22 39.75828 3.23425 19043 ft 409 kts
2026-05-05 06:22 39.78639 3.23952 18392 ft 407 kts
2026-05-05 06:22 39.81447 3.24446 17665 ft 406 kts
2026-05-05 06:23 39.84247 3.24996 16930 ft 408 kts
2026-05-05 06:23 39.86936 3.26242 16217 ft 411 kts 16°
2026-05-05 06:23 39.89678 3.27038 15515 ft 400 kts 358°
2026-05-05 06:23 39.92398 3.26728 14811 ft 387 kts 340°
2026-05-05 06:24 39.94796 3.25381 14073 ft 367 kts 321°
2026-05-05 06:24 39.96599 3.23168 13294 ft 350 kts 301°
2026-05-05 06:24 39.97620 3.20385 12492 ft 336 kts 283°
2026-05-05 06:24 39.98114 3.17490 11712 ft 327 kts 270°
2026-05-05 06:25 39.97812 3.14610 10948 ft 318 kts 248°
2026-05-05 06:25 39.96676 3.12191 10199 ft 313 kts 225°
2026-05-05 06:25 39.94905 3.10607 9435 ft 310 kts 204°
2026-05-05 06:25 39.92906 3.09593 8779 ft 304 kts 202°
2026-05-05 06:26 39.90942 3.08615 8145 ft 300 kts 202°
2026-05-05 06:26 39.89103 3.07406 7514 ft 294 kts 218°
2026-05-05 06:26 39.87750 3.05465 6916 ft 289 kts 236°
2026-05-05 06:26 39.86415 3.03552 6298 ft 285 kts 214°
2026-05-05 06:27 39.84604 3.02569 5675 ft 284 kts 193°
2026-05-05 06:27 39.80866 3.01627 5047 ft 260 kts 192°
2026-05-05 06:27 39.79148 3.01204 4963 ft 241 kts 192°
2026-05-05 06:28 39.77516 3.00802 4963 ft 244 kts 192°
2026-05-05 06:28 39.75853 3.00395 4964 ft 243 kts 192°
2026-05-05 06:28 39.74197 2.99991 4958 ft 241 kts 192°
2026-05-05 06:28 39.72538 2.99586 4793 ft 242 kts 192°
2026-05-05 06:29 39.70888 2.99187 4536 ft 239 kts 192°
2026-05-05 06:29 39.69261 2.98795 4276 ft 236 kts 192°
2026-05-05 06:29 39.67657 2.98402 4027 ft 233 kts 194°
2026-05-05 06:29 39.66194 2.97603 3825 ft 225 kts 216°
2026-05-05 06:30 39.65081 2.96210 3540 ft 221 kts 231°
2026-05-05 06:30 39.64220 2.94608 3246 ft 212 kts 237°
2026-05-05 06:30 39.63471 2.92999 2976 ft 204 kts 238°
2026-05-05 06:30 39.62746 2.91463 2720 ft 196 kts 237°
2026-05-05 06:31 39.62061 2.90005 2508 ft 183 kts 238°
2026-05-05 06:31 39.61427 2.88658 2252 ft 166 kts 238°
2026-05-05 06:31 39.60860 2.87454 2036 ft 145 kts 237°
2026-05-05 06:31 39.60369 2.86410 1851 ft 130 kts 238°
2026-05-05 06:32 39.59892 2.85398 1688 ft 131 kts 237°
2026-05-05 06:32 39.59418 2.84391 1491 ft 131 kts 237°
2026-05-05 06:32 39.58950 2.83396 1326 ft 132 kts 237°
2026-05-05 06:32 39.58465 2.82369 1149 ft 133 kts 237°
2026-05-05 06:33 39.57989 2.81360 967 ft 132 kts 237°
2026-05-05 06:33 39.57512 2.80345 787 ft 135 kts 237°
2026-05-05 06:33 39.57025 2.79311 617 ft 136 kts 237°
2026-05-05 06:33 39.56532 2.78267 418 ft 136 kts 237°
2026-05-05 06:34 39.56044 2.77212 240 ft 136 kts 237°
2026-05-05 06:34 39.55550 2.76164 47 ft 136 kts 237°
2026-05-05 06:34 39.55093 2.75210 30 ft 106 kts 238°
2026-05-05 06:34 39.54874 2.74752 31 ft 42 kts 237°
2026-05-05 06:35 39.54807 2.74416 32 ft 26 kts 269°
2026-05-05 06:35 39.54803 2.74201 36 ft 17 kts 264°
2026-05-05 06:35 39.54754 2.74052 36 ft 19 kts 242°
2026-05-05 06:35 39.54681 2.73900 36 ft 21 kts 232°
2026-05-05 06:36 39.54609 2.73733 35 ft 23 kts 240°
2026-05-05 06:36 39.54616 2.73615 36 ft 12 kts 286°
2026-05-05 06:36 39.54654 2.73508 36 ft 14 kts 279°
2026-05-05 06:36 39.54641 2.73436 36 ft 0 kts 253°